2024-169A

Last updated on Mon Oct 21 2024 00:02:04 GMT+0000 (Coordinated Universal Time)

1 61189U 24169A 24294.53019766 .00023246 00000+0 14711-2 0 9997 2 61189 97.5963 19.6135 0010027 172.6175 187.5203 15.08950419 4574
UTC large
Height (km)
Speed (km/s)
/
Latitude / Longitude
Inclination (degrees)
Orbital Period (minutes)
Azimuth
Elevation
Range (km)
Doppler Factor

Next 0 passes for location: London (51.5072 / 0.1276)

Sorry there are no passes over London.